www.pogodaiklimat.ru

Погода и климат >> Архив погоды >> Пакистан >> Bahawalpur


ПОГОДА в Bahawalpur

  • Прогноз погоды в Bahawalpur
  • Монитор погоды в Bahawalpur
  • Климат города

АРХИВ ПОГОДЫ в Bahawalpur

Время (UTC), дата Ветер
(напр.,м/с)
 
Видим.   Явления Облачность Т
(С)
Тd
(С)
f
(%)
Тe
(С)
Тes
(С)
Комфортность P
(гПа)
Po
(гПа)
Тmin
(С)
Tmax
(С)
R
(мм)
R24
(мм)
S
(см)
15 11.09 штиль 0 2000 м дым ясно +32.5 +25.5 67 +47 +47 опасность
перегрева
1001.9 1000.0
18 11.09 штиль 0 2000 м дым ясно +31.0 +25.4 72 +45 +45 опасность
перегрева
1002.4 1000.0
21 11.09 штиль 0 2000 м дым ясно +29.5 +24.5 75 +42 +42 опасность
перегрева
1002.1 1000.0
00 12.09 ЮЗ 1 2000 м дым ясно +28.0 +23.7 77 +38 +38 очень
душно
1001.7 989.4
03 12.09 ЮЗ 3 2000 м дым ясно +28.5 +23.5 74 +39 +42 очень
душно
1002.4 990.2 +27.1
06 12.09 ЮЗ 7 4000 м пыльный позёмок ясно +31.5 +23.6 63 +43 +47 опасность
перегрева
1003.0 1003.0
09 12.09 ЮЗ 7 4000 м пыльный позёмок ясно +35.0 +23.7 52 +46 +50 опасность
перегрева
1000.7 1001.0
12 12.09 З 2 4000 м мгла ясно +36.0 +23.2 48 +46 +48 опасность
перегрева
998.8 1000.2 +36.9
15 12.09 штиль 0 2000 м дым ясно +33.0 +24.6 61 +46 +46 опасность
перегрева
999.4 1000.0
18 12.09 ЮЗ 2 2000 м дым ясно +31.0 +23.9 66 +43 +43 опасность
перегрева
999.0 1000.0
21 12.09 ЮЗ 2 2000 м дым ясно +29.5 +23.8 71 +40 +40 очень
душно
998.7 1000.0
00 13.09 ЮЗ 3 2000 м дым ясно +27.5 +23.1 77 +37 +37 очень
душно
998.6 986.3
03 13.09 ЮЗ 5 2000 м дым ясно +28.0 +22.1 70 +36 +38 очень
душно
1001.0 988.7 +26.0
06 13.09 З 3 4000 м дым ясно +30.5 +22.5 62 +40 +54 опасность
солнечного
удара
1002.4 1000.0
09 13.09 ЮЗ 2 4000 м дым ясно +34.5 +23.1 52 +45 +59 опасность
перегрева
1000.6 1000.0
12 13.09 ЮЗ 2 4000 м дым ясно +36.0 +24.0 50 +47 +49 опасность
перегрева
999.2 1000.0 +36.9
15 13.09 штиль 0 2000 м дым ясно +32.0 +25.0 67 +46 +46 опасность
перегрева
1000.0 1000.0
18 13.09 штиль 0 2000 м дым ясно +30.0 +24.3 72 +42 +42 опасность
перегрева
1000.5 1000.0
21 13.09 штиль 0 2000 м дым ясно +28.5 +24.2 78 +40 +40 очень
душно
1000.2 1000.0
00 14.09 ЮЗ 1 2000 м дым ясно +26.5 +23.6 84 +36 +36 очень
душно
1000.2 987.8
03 14.09 ЮЗ 3 2000 м дым ясно +27.0 +22.6 77 +36 +39 очень
душно
1002.7 990.3 +25.7
06 14.09 ЮЗ 2 2000 м дым ясно +31.0 +23.1 63 +41 +58 опасность
перегрева
1004.7 1000.0
09 14.09 ЮЗ 2 4000 м мгла ясно +34.5 +22.2 49 +43 +57 опасность
перегрева
1003.4 1000.0
12 14.09 ЮЗ 1 4000 м мгла ясно +35.5 +21.7 45 +44 +46 опасность
перегрева
1002.4 990.4 +36.1
15 14.09 штиль 0 2000 м дым ясно +32.0 +22.6 58 +42 +42 опасность
перегрева
1003.6 1000.0
18 14.09 ЮЗ 2 2000 м дым ясно +29.0 +23.2 71 +39 +39 очень
душно
1004.1 1000.0
21 14.09 ЮЗ 2 2000 м дым ясно +27.5 +23.1 77 +37 +37 очень
душно
1004.0 1000.0
00 15.09 ЮЗ 1 2000 м дымка ясно +26.0 +23.1 84 +35 +35 очень
душно
1003.8 991.4
03 15.09 ЮЗ 2 2000 м дым ясно +27.0 +22.6 77 +36 +40 очень
душно
1006.5 994.0 +25.3
06 15.09 ЮЗ 2 2000 м дым ясно +32.0 +22.6 58 +42 +59 опасность
перегрева
1007.8 1000.0
09 15.09 ЮЗ 2 2000 м мгла 3/3 300 м
[Sc]
+34.0 +21.6 48 +42 +52 опасность
перегрева
1006.2 1000.0
12 15.09 СВ 1 4000 м дым ясно +32.5 +22.4 55 +42 +44 опасность
перегрева
1005.0 992.8 +35.7
15 15.09 СВ 2 2000 м дым ясно +29.5 +23.0 68 +39 +39 очень
душно
1006.2 1000.0
18 15.09 штиль 0 2000 м дым ясно +27.5 +23.1 77 +37 +37 очень
душно
1006.9 1000.0
21 15.09 штиль 0 2000 м дымка ясно +26.0 +22.3 80 +34 +34 очень
душно
1006.8 1000.0
00 16.09 ЮЗ 2 2000 м дымка ясно +24.5 +22.3 88 +32 +32 очень
душно
1006.4 993.9
03 16.09 штиль 0 2000 м дымка 3/0
[Ac trans]
+26.0 +22.3 80 +34 +38 очень
душно
1007.9 995.4 +23.9
06 16.09 штиль 0 2000 м дым 3/0
[Ac trans]
+32.0 +23.4 60 +43 +60 опасность
перегрева
1007.4 1000.0
09 16.09 З 1 2000 м дым 5/4 300 м
[Sc Ac trans]
+34.0 +22.5 51 +43 +52 опасность
перегрева
1005.6 1000.0
12 16.09 штиль 0 2000 м дым ясно +33.5 +22.7 53 +43 +45 опасность
перегрева
1003.4 991.4 +34.9
15 16.09 штиль 0 2000 м дым ясно +30.5 +24.1 69 +42 +42 опасность
перегрева
1004.2 1000.0
18 16.09 штиль 0 2000 м дым ясно +28.5 +23.5 74 +39 +39 очень
душно
1004.8 1000.0
21 16.09 штиль 0 2000 м дым ясно +26.5 +22.1 77 +34 +34 очень
душно
1004.5 1000.0
00 17.09 ЮЗ 1 2000 м дымка ясно +25.0 +22.0 83 +32 +32 очень
душно
1004.2 991.7
03 17.09 З 3 2000 м дым ясно +27.0 +21.8 73 +35 +38 очень
душно
1005.7 993.2 +24.4
06 17.09 ЮЗ 2 2000 м дым ясно +33.0 +22.1 53 +42 +59 опасность
перегрева
1005.7 1000.0
09 17.09 ЮЗ 2 2000 м мгла ясно +35.5 +19.9 40 +41 +56 опасность
перегрева
1004.0 1000.0
12 17.09 З 3 2000 м дым ясно +35.0 +18.3 37 +39 +40 очень
душно
1002.8 990.8 +36.5
15 17.09 штиль 0 2000 м дым ясно +30.5 +20.0 53 +37 +37 очень
душно
1003.6 1000.0
18 17.09 штиль 0 2000 м дым ясно +28.5 +20.2 61 +35 +35 очень
душно
1003.7 1000.0
21 17.09 штиль 0 2000 м дым ясно +27.0 +21.0 70 +34 +34 очень
душно
1003.4 1000.0
00 18.09 ЮЗ 1 2000 м дым ясно +25.5 +21.0 76 +32 +32 очень
душно
1002.9 990.5
03 18.09 ЮЗ 1 2000 м дым ясно +27.5 +22.4 74 +36 +40 очень
душно
1004.6 992.3 +24.9
06 18.09 ЮЗ 3 2000 м дым ясно +33.0 +23.0 56 +43 +57 опасность
перегрева
1005.5 1000.0
09 18.09 ЮЗ 3 2000 м мгла ясно +36.0 +21.5 43 +44 +56 опасность
перегрева
1003.4 1000.0
12 18.09 ЮЗ 3 2000 м мгла ясно +35.5 +19.9 40 +41 +42 опасность
перегрева
1001.9 989.9 +36.7

 

Местоположение метеостанции Bahawalpur (Пакистан): широта 29.40 долгота 71.78 высота над уровнем моря 113 м.

В архиве по умолчанию представлена погода в Bahawalpur за последнюю неделю. Архивные данные за месяц целиком и за предыдущие месяцы, начиная с января 2011 года, Вы можете получить, выбрав интересующий диапазон дат из раскрывающегося списка и нажав кнопку "Ввод!".


*Определитесь, кто Вы:
робот инопланетянин человек

Внимание! Время в таблицах - всемирное. Для получения местного времени необходимо прибавить поправку, которая в Bahawalpur равна 5 ч.

Смотрите также архив погоды в соседних городах и на ближайших метеорологических станциях:

Погода в Multan (Пакистан) (95 км)
Погода в Khanpur (Пакистан) (136 км)
Погода в Bahawalnagar (Пакистан) (155 км)
Погода в Raifiqui Airbase (Пакистан) (159 км)
Погода в Barkhan (Пакистан) (206 км)
Погода в Sri Ganganagar (Rajasthan, Индия) (212 км)
Погода в Bikaner (Rajasthan, Индия) (215 км)
Погода в Faisal Abad (Пакистан) (259 км)
Погода в Dera Ismail Khan (Пакистан) (281 км)
Погода в Jaisalmer (Rajasthan, Индия) (291 км)

Пояснения к столбцам:

Ветер - указаны скорость ветра в м/с - средняя за 10 мин, порывы в срок и между сроками (в фигурных скобках) и направление, откуда дует ветер: С - северный, СВ - северо-восточный, В - восточный, ЮВ - юго-восточный, Ю - южный, ЮЗ - юго-западный, З - западный, СЗ - северо-западный.
Видимость - горизонтальная дальность видимости в метрах или километрах. При видимости от 1 до 10 км при отсутствии осадков обычно наблюдается дымка, при ухудшении видимости до 1 км и менее - туман. В сухую погоду видимость может ухудшаться дымом, пылью или мглою.
Явления - указаны атмосферные явления, наблюдавшиеся в срок или в последний час перед сроком; фигурными скобками обозначены явления, наблюдавшиеся между сроками (за 1-3 часа до срока); квадратными скобками обозначены град или гололедные отложения с указанием их диаметра в мм.
Облачность - указаны через наклонную черту общая и нижняя облачность в баллах и высота нижней границы облаков в метрах; квадратными скобками обозначены формы облаков: Ci - перистые, Cs - перисто-слоистые, Cc - перисто-кучевые, Ac - высококучевые, As - высокослоистые, Sc - слоисто-кучевые, Ns - слоисто-дождевые, Cu - кучевые, Cb - кучево-дождевые. Подробнее классификацию облаков см. в Атласе облаков (PDF).
T - Температура воздуха - температура, измеренная на высоте 2 м над землей.
Td - Температура точки росы - температура, при понижении до которой содержащийся в воздухе водяной пар достигнет насыщения.
f - Относительная влажность воздуха - влажноcть воздуха, измеренная на высоте 2 м над землей.
Te - Эффективная температура - температура, которую ощущает одетый по сезону человек в тени. Характеристика душности погоды. При расчете учитывается влияние влажности воздуха и скорости ветра на теплоощущения человека.
Tes - Эффективная температура на солнце - температура, которую ощущает человек, с поправкой на солнечный нагрев. Характеристика знойности погоды. Зависит от высоты солнца над горизонтом, облачности и скорости ветра. Ночью, в пасмурную погоду, а также при ветре 12 м/с и более поправка равна нулю.
P - Атмосферное давление - приведенное к уровню моря атмосферное давление.
Po - Атмосферное давление - измеренное на уровне метеостанции атмосферное давление.
Tmin - Минимальная температура - минимум температуры воздуха на высоте 2 м над землей.
Tmax - Максимальная температура - максимум температуры воздуха на высоте 2 м над землей.
R - Количество осадков - Количество выпавших осадков за период времени, мм. При наведении курсора мыши на число - период времени, за который выпало указанное количество осадков.
R24 - Количество осадков - Количество выпавших осадков за 24 часа, мм.
S - Снежный покров - Высота снежного покрова, см. При наведении курсора мыши на число - состояние снежного покрова и степень покрытия местности в баллах.